Regional Weather Roundup
Issued by NWS

Home | Current Version | Previous Version | Graphics & Text | Print | Product List | Glossary On
Versions: 1 2 3 4 5 6 7 8 9 10 11 12 13 14 15 16 17 18 19 20 21 22 23 24 25 26 27 28 29 30 31 32 33 34 35 36 37 38 39 40 41 42 43 44 45 46 47 48 49 50
000
ASUS43 KLMK 162102
RWRKY
KENTUCKY REGIONAL WEATHER ROUNDUP
NATIONAL WEATHER SERVICE LOUISVILLE KY
500 PM EDT MON OCT 16 2017

NOTE "FAIR" INDICATES FEW OR NO CLOUDS BELOW 12,000 FEET
WITH NO SIGNIFICANT WEATHER AND/OR OBSTRUCTIONS TO VISIBILITY.

KYZ001>023-026-027-061>063-070>075-162200-
WESTERN AND SOUTH CENTRAL KENTUCKY

CITY           SKY/WX    TMP DP  RH WIND       PRES   REMARKS
PADUCAH        SUNNY     65  35  33 NE9G17    30.30F
HENDERSON      SUNNY     64  35  34 N9        30.32F
OWENSBORO      SUNNY     63  37  38 N7        30.31S
HOPKINSVILLE   SUNNY     63  39  41 N10       30.28F
BOWLING GREEN  MOSUNNY   65  41  41 NE8       30.29S
GLASGOW        NOT AVBL
$$

KYZ024-025-028>034-038-045-046-053-162200-
NORTH CENTRAL KENTUCKY

CITY           SKY/WX    TMP DP  RH WIND       PRES   REMARKS
LOUISVILLE/SDF MOSUNNY   64  37  36 NW9G21    30.29F
LOUISVILLE/LOU SUNNY     63  39  41 N8        30.30S
FORT KNOX      MOSUNNY   62  38  42 N3        30.28S
$$

KYZ035>037-039>044-047>052-055>060-089>105-162200-
NORTHEAST KENTUCKY

CITY           SKY/WX    TMP DP  RH WIND       PRES   REMARKS
LEXINGTON      PTSUNNY   62  40  44 NW8       30.28F
COVINGTON      MOSUNNY   58  38  47 NW8       30.28S
FRANKFORT      MOSUNNY   61  37  41 N8        30.28S
$$

KYZ054-064>069-076>088-106>120-162200-
SOUTHEAST KENTUCKY

CITY           SKY/WX    TMP DP  RH WIND       PRES   REMARKS
JACKSON        PTSUNNY   59  39  47 VRB5      30.26S
LONDON         MOSUNNY   58  37  45 N9G16     30.26S
SOMERSET       NOT AVBL
MIDDLESBORO    MOSUNNY   61  40  44 N9        30.24F
MONTICELLO     PTCLDY    60  39  45 N15G24    30.28F
$$





USA.gov is the U.S. government's official web portal to all federal, state and local government web resources and services.